AUA42CQ LEPA-LOWW

Flight info

Callsign AUA42CQ
Flight time 2h 11m
Altitude 36000
Route ISTER DCT NIVDA DCT OMEDA DCT RAPUR DCT TORTU DCT ERTEV/N0444F350 DCT ARALD DCT ABTAN ABTAN2W
Aircraft A321/M-SDE3FGHIRWY/LB1

Departure

Time 2026-04-26 16:27
Airport Palma de Mallorca Airport (LEPA)

Arrival

Time 2026-04-26 18:38
Airport Vienna International Airport (LOWW)
Time Latitude Longitude Altitude Speed Heading
2026-04-26 16:05 39.54755 2.73627 38 ft 0 kts 58°
2026-04-26 16:16 39.54752 2.73621 37 ft 4 kts 58°
2026-04-26 16:16 39.54739 2.73592 37 ft 4 kts 70°
2026-04-26 16:16 39.54738 2.73563 38 ft 4 kts 126°
2026-04-26 16:16 39.54755 2.73542 36 ft 1 kts 149°
2026-04-26 16:17 39.54774 2.73528 37 ft 2 kts 149°
2026-04-26 16:17 39.54775 2.73527 37 ft 2 kts 149°
2026-04-26 16:20 39.54705 2.73581 38 ft 12 kts 149°
2026-04-26 16:20 39.54663 2.73677 38 ft 16 kts 65°
2026-04-26 16:21 39.54724 2.73816 38 ft 20 kts 59°
2026-04-26 16:21 39.54796 2.73959 38 ft 17 kts 58°
2026-04-26 16:21 39.54887 2.73971 38 ft 15 kts 331°
2026-04-26 16:21 39.54948 2.74002 38 ft 9 kts 33°
2026-04-26 16:22 39.55000 2.73987 38 ft 7 kts 331°
2026-04-26 16:22 39.55042 2.73955 37 ft 7 kts 329°
2026-04-26 16:22 39.55085 2.73922 38 ft 8 kts 330°
2026-04-26 16:22 39.55142 2.73878 38 ft 13 kts 328°
2026-04-26 16:23 39.55244 2.73796 37 ft 21 kts 328°
2026-04-26 16:23 39.55377 2.73691 38 ft 22 kts 328°
2026-04-26 16:23 39.55505 2.73590 38 ft 21 kts 329°
2026-04-26 16:23 39.55634 2.73507 36 ft 20 kts
2026-04-26 16:24 39.55709 2.73617 38 ft 16 kts 58°
2026-04-26 16:24 39.55765 2.73736 38 ft 16 kts 59°
2026-04-26 16:24 39.55834 2.73879 38 ft 22 kts 58°
2026-04-26 16:24 39.55924 2.74069 38 ft 26 kts 58°
2026-04-26 16:25 39.56023 2.74253 38 ft 24 kts 36°
2026-04-26 16:25 39.56131 2.74331 38 ft 7 kts 27°
2026-04-26 16:25 39.56171 2.74349 38 ft 7 kts
2026-04-26 16:25 39.56224 2.74319 38 ft 10 kts 311°
2026-04-26 16:26 39.56195 2.74197 37 ft 25 kts 239°
2026-04-26 16:26 39.56086 2.73965 38 ft 68 kts 238°
2026-04-26 16:26 39.55570 2.72871 39 ft 142 kts 239°
2026-04-26 16:26 39.55022 2.71696 434 ft 154 kts 240°
2026-04-26 16:27 39.54471 2.70496 1073 ft 157 kts 236°
2026-04-26 16:27 39.53863 2.69220 1394 ft 177 kts 236°
2026-04-26 16:27 39.53176 2.67784 1603 ft 198 kts 237°
2026-04-26 16:27 39.52415 2.66189 1797 ft 217 kts 237°
2026-04-26 16:28 39.51608 2.64495 2273 ft 224 kts 237°
2026-04-26 16:28 39.50784 2.62768 2917 ft 227 kts 237°
2026-04-26 16:28 39.49904 2.61037 3458 ft 237 kts 226°
2026-04-26 16:28 39.48505 2.59807 3707 ft 255 kts 202°
2026-04-26 16:29 39.46847 2.58782 4178 ft 270 kts 203°
2026-04-26 16:29 39.45143 2.57720 4921 ft 273 kts 203°
2026-04-26 16:29 39.43387 2.56771 5650 ft 274 kts 188°
2026-04-26 16:29 39.41548 2.56935 6313 ft 271 kts 155°
2026-04-26 16:30 39.40071 2.58387 6962 ft 270 kts 128°
2026-04-26 16:30 39.38827 2.60222 7633 ft 274 kts 135°
2026-04-26 16:30 39.37533 2.62033 8292 ft 276 kts 118°
2026-04-26 16:30 39.37045 2.64415 8900 ft 279 kts 88°
2026-04-26 16:31 39.37325 2.66909 9544 ft 283 kts 80°
2026-04-26 16:31 39.37636 2.69432 10216 ft 286 kts 82°
2026-04-26 16:31 39.37907 2.72055 10447 ft 305 kts 83°
2026-04-26 16:31 39.38167 2.74872 10575 ft 326 kts 84°
2026-04-26 16:32 39.38431 2.77865 10699 ft 344 kts 84°
2026-04-26 16:32 39.38612 2.79927 10903 ft 352 kts 84°
2026-04-26 16:32 39.38986 2.84129 11590 ft 358 kts 84°
2026-04-26 16:32 39.39276 2.87335 12165 ft 361 kts 83°
2026-04-26 16:33 39.39572 2.90567 12754 ft 364 kts 83°
2026-04-26 16:33 39.39871 2.93826 13339 ft 366 kts 83°
2026-04-26 16:33 39.40173 2.97103 13912 ft 369 kts 83°
2026-04-26 16:33 39.40475 3.00411 14408 ft 371 kts 83°
2026-04-26 16:34 39.40777 3.03739 14905 ft 374 kts 84°
2026-04-26 16:34 39.41081 3.07091 15374 ft 377 kts 84°
2026-04-26 16:34 39.41386 3.10468 15832 ft 380 kts 84°
2026-04-26 16:34 39.41692 3.13872 16301 ft 382 kts 84°
2026-04-26 16:35 39.41997 3.17301 16763 ft 385 kts 84°
2026-04-26 16:35 39.42298 3.20699 17211 ft 387 kts 84°
2026-04-26 16:35 39.42736 3.24138 17640 ft 390 kts 76°
2026-04-26 16:35 39.43644 3.27452 18050 ft 393 kts 65°
2026-04-26 16:36 39.44984 3.30544 18442 ft 396 kts 60°
2026-04-26 16:36 39.46408 3.33602 18787 ft 398 kts 60°
2026-04-26 16:36 39.47832 3.36681 19139 ft 400 kts 60°
2026-04-26 16:36 39.49257 3.39781 19463 ft 402 kts 60°
2026-04-26 16:37 39.50684 3.42895 19804 ft 404 kts 60°
2026-04-26 16:37 39.52120 3.46034 20148 ft 406 kts 60°
2026-04-26 16:37 39.53560 3.49183 20474 ft 408 kts 60°
2026-04-26 16:37 39.54990 3.52309 20833 ft 409 kts 60°
2026-04-26 16:38 39.56444 3.55490 21191 ft 412 kts 60°
2026-04-26 16:38 39.57907 3.58692 21549 ft 414 kts 60°
2026-04-26 16:38 39.59376 3.61910 21901 ft 416 kts 60°
2026-04-26 16:38 39.60853 3.65148 22265 ft 418 kts 60°
2026-04-26 16:39 39.62337 3.68405 22616 ft 420 kts 60°
2026-04-26 16:39 39.63827 3.71680 22983 ft 423 kts 60°
2026-04-26 16:39 39.65323 3.74976 23342 ft 425 kts 60°
2026-04-26 16:39 39.66829 3.78285 23692 ft 427 kts 60°
2026-04-26 16:40 39.68344 3.81614 23978 ft 429 kts 60°
2026-04-26 16:40 39.69843 3.84918 24238 ft 432 kts 60°
2026-04-26 16:40 39.71370 3.88292 24511 ft 434 kts 60°
2026-04-26 16:40 39.72903 3.91680 24803 ft 436 kts 60°
2026-04-26 16:41 39.74443 3.95087 25091 ft 438 kts 60°
2026-04-26 16:41 39.75987 3.98509 25371 ft 440 kts 60°
2026-04-26 16:41 39.77536 4.01946 25662 ft 442 kts 60°
2026-04-26 16:41 39.79092 4.05399 25939 ft 444 kts 60°
2026-04-26 16:42 39.80652 4.08869 26215 ft 445 kts 60°
2026-04-26 16:42 39.82218 4.12352 26487 ft 447 kts 60°
2026-04-26 16:42 39.83791 4.15855 26762 ft 449 kts 60°
2026-04-26 16:42 39.85367 4.19370 27026 ft 451 kts 60°
2026-04-26 16:43 39.86928 4.22858 27278 ft 453 kts 60°
2026-04-26 16:43 39.88512 4.26410 27528 ft 455 kts 60°
2026-04-26 16:43 39.90107 4.29973 27776 ft 456 kts 60°
2026-04-26 16:43 39.91711 4.33548 27991 ft 458 kts 60°
2026-04-26 16:44 39.93321 4.37133 28209 ft 459 kts 60°
2026-04-26 16:44 39.94934 4.40732 28404 ft 461 kts 60°
2026-04-26 16:44 39.96549 4.44344 28611 ft 462 kts 60°
2026-04-26 16:44 39.98168 4.47974 28795 ft 463 kts 60°
2026-04-26 16:45 39.99784 4.51610 28972 ft 464 kts 60°
2026-04-26 16:45 40.01403 4.55257 29209 ft 464 kts 60°
2026-04-26 16:45 40.02994 4.58842 29464 ft 463 kts 60°
2026-04-26 16:45 40.04609 4.62480 29705 ft 463 kts 60°
2026-04-26 16:46 40.06258 4.66085 29952 ft 462 kts 56°
2026-04-26 16:46 40.08210 4.69411 30184 ft 462 kts 50°
2026-04-26 16:46 40.10268 4.72626 30400 ft 461 kts 50°
2026-04-26 16:46 40.12324 4.75842 30608 ft 461 kts 50°
2026-04-26 16:47 40.14376 4.79056 30814 ft 461 kts 50°
2026-04-26 16:47 40.16424 4.82270 31021 ft 460 kts 50°
2026-04-26 16:47 40.18471 4.85489 31245 ft 460 kts 50°
2026-04-26 16:47 40.20512 4.88707 31464 ft 459 kts 50°
2026-04-26 16:48 40.22549 4.91926 31680 ft 459 kts 50°
2026-04-26 16:48 40.24587 4.95145 31898 ft 459 kts 50°
2026-04-26 16:48 40.26623 4.98360 32117 ft 458 kts 50°
2026-04-26 16:48 40.28661 5.01578 32325 ft 458 kts 50°
2026-04-26 16:49 40.30695 5.04795 32545 ft 458 kts 50°
2026-04-26 16:49 40.32700 5.07972 32749 ft 458 kts 50°
2026-04-26 16:49 40.34752 5.11229 32976 ft 458 kts 50°
2026-04-26 16:49 40.36748 5.14405 33185 ft 457 kts 50°
2026-04-26 16:50 40.38774 5.17626 33378 ft 458 kts 50°
2026-04-26 16:50 40.40802 5.20850 33591 ft 458 kts 50°
2026-04-26 16:50 40.42826 5.24070 33812 ft 457 kts 50°
2026-04-26 16:50 40.44849 5.27294 34036 ft 457 kts 50°
2026-04-26 16:51 40.46866 5.30521 34225 ft 457 kts 50°
2026-04-26 16:51 40.48881 5.33747 34418 ft 456 kts 50°
2026-04-26 16:51 40.50895 5.36972 34585 ft 456 kts 50°
2026-04-26 16:51 40.52908 5.40193 34765 ft 456 kts 50°
2026-04-26 16:52 40.54924 5.43419 34931 ft 456 kts 50°
2026-04-26 16:52 40.55605 5.44509 34994 ft 456 kts 50°
2026-04-26 16:52 40.58942 5.49874 35274 ft 456 kts 50°
2026-04-26 16:52 40.60950 5.53104 35438 ft 456 kts 50°
2026-04-26 16:53 40.62956 5.56334 35600 ft 456 kts 50°
2026-04-26 16:53 40.64964 5.59570 35771 ft 455 kts 50°
2026-04-26 16:53 40.66965 5.62801 35926 ft 455 kts 50°
2026-04-26 16:53 40.68964 5.66040 36093 ft 455 kts 50°
2026-04-26 16:54 40.72950 5.72507 36145 ft 454 kts 50°
2026-04-26 16:54 40.76933 5.78962 36149 ft 454 kts 50°
2026-04-26 16:55 40.80926 5.85447 36144 ft 455 kts 50°
2026-04-26 16:55 40.84889 5.91910 36144 ft 456 kts 50°
2026-04-26 16:56 40.90878 6.01683 36153 ft 456 kts 50°
2026-04-26 16:57 40.94871 6.08209 36155 ft 456 kts 50°
2026-04-26 16:57 41.00852 6.18033 36158 ft 457 kts 50°
2026-04-26 16:58 41.03495 6.22377 36158 ft 457 kts 50°
2026-04-26 16:59 41.10803 6.34428 36165 ft 458 kts 50°
2026-04-26 17:00 41.18134 6.46552 36160 ft 458 kts 50°
2026-04-26 17:00 41.24096 6.56483 36163 ft 459 kts 50°
2026-04-26 17:01 41.28124 6.63070 36160 ft 459 kts 49°
2026-04-26 17:01 41.32193 6.69535 36164 ft 459 kts 49°
2026-04-26 17:02 41.36286 6.76057 36163 ft 459 kts 49°
2026-04-26 17:02 41.40348 6.82620 36164 ft 459 kts 49°
2026-04-26 17:03 41.44400 6.89204 36167 ft 459 kts 49°
2026-04-26 17:03 41.48454 6.95791 36163 ft 459 kts 49°
2026-04-26 17:04 41.52503 7.02377 36169 ft 459 kts 49°
2026-04-26 17:04 41.56552 7.08971 36179 ft 459 kts 49°
2026-04-26 17:05 41.60604 7.15574 36168 ft 459 kts 49°
2026-04-26 17:05 41.64644 7.22190 36166 ft 460 kts 49°
2026-04-26 17:06 41.68683 7.28825 36165 ft 460 kts 49°
2026-04-26 17:06 41.72696 7.35433 36168 ft 460 kts 49°
2026-04-26 17:07 41.76731 7.42088 36172 ft 460 kts 49°
2026-04-26 17:07 41.80767 7.48745 36166 ft 460 kts 49°
2026-04-26 17:08 41.84805 7.55409 36168 ft 460 kts 49°
2026-04-26 17:08 41.88826 7.62081 36160 ft 454 kts 51°
2026-04-26 17:09 41.92068 7.67474 36150 ft 443 kts 51°
2026-04-26 17:09 41.96590 7.75010 36148 ft 443 kts 51°
2026-04-26 17:10 42.00462 7.81470 36146 ft 444 kts 50°
2026-04-26 17:10 42.04313 7.87901 36151 ft 444 kts 51°
2026-04-26 17:11 42.08183 7.94389 36157 ft 445 kts 51°
2026-04-26 17:11 42.12050 8.00897 36166 ft 445 kts 51°
2026-04-26 17:12 42.17847 8.10679 36169 ft 446 kts 51°
2026-04-26 17:13 42.23656 8.20492 36158 ft 447 kts 51°
2026-04-26 17:14 42.29461 8.30339 36162 ft 447 kts 51°
2026-04-26 17:14 42.33929 8.36119 36153 ft 446 kts 33°
2026-04-26 17:14 42.36608 8.38210 36150 ft 445 kts 24°
2026-04-26 17:15 42.45151 8.42968 36147 ft 445 kts 22°
2026-04-26 17:16 42.50887 8.46164 36156 ft 446 kts 22°
2026-04-26 17:16 42.56629 8.49354 36153 ft 446 kts 22°
2026-04-26 17:17 42.62332 8.52527 36156 ft 446 kts 21°
2026-04-26 17:17 42.68078 8.55740 36159 ft 446 kts 21°
2026-04-26 17:18 42.73820 8.58966 36154 ft 447 kts 22°
2026-04-26 17:18 42.79574 8.62202 36158 ft 448 kts 22°
2026-04-26 17:19 42.88183 8.67035 36167 ft 448 kts 21°
2026-04-26 17:19 42.93945 8.70285 36165 ft 449 kts 21°
2026-04-26 17:20 42.98745 8.72998 36163 ft 449 kts 21°
2026-04-26 17:20 43.05500 8.76815 36170 ft 450 kts 21°
2026-04-26 17:21 43.11276 8.80101 36171 ft 450 kts 21°
2026-04-26 17:21 43.17023 8.83374 36176 ft 450 kts 21°
2026-04-26 17:22 43.22814 8.86665 36174 ft 450 kts 21°
2026-04-26 17:22 43.28601 8.89972 36174 ft 451 kts 21°
2026-04-26 17:23 43.34391 8.93291 36169 ft 451 kts 21°
2026-04-26 17:23 43.40392 8.95630 36170 ft 448 kts
2026-04-26 17:24 43.46606 8.95832 36167 ft 447 kts 358°
2026-04-26 17:24 43.52825 8.95815 36168 ft 447 kts 358°
2026-04-26 17:25 43.55926 8.96109 36165 ft 449 kts 12°
2026-04-26 17:25 43.58821 8.97711 36166 ft 451 kts 29°
2026-04-26 17:25 43.64111 9.02399 36157 ft 452 kts 29°
2026-04-26 17:26 43.69487 9.06796 36160 ft 453 kts 29°
2026-04-26 17:26 43.74912 9.11238 36164 ft 453 kts 29°
2026-04-26 17:27 43.79937 9.16520 36164 ft 455 kts 41°
2026-04-26 17:27 43.84490 9.22606 36165 ft 456 kts 44°
2026-04-26 17:28 43.88968 9.28841 36167 ft 456 kts 43°
2026-04-26 17:28 43.93526 9.34969 36165 ft 457 kts 42°
2026-04-26 17:29 43.97359 9.40018 36169 ft 457 kts 42°
2026-04-26 17:29 44.02741 9.47129 36170 ft 457 kts 43°
2026-04-26 17:30 44.07335 9.53258 36167 ft 458 kts 42°
2026-04-26 17:30 44.11897 9.59362 36163 ft 458 kts 42°
2026-04-26 17:31 44.16494 9.65521 36161 ft 458 kts 42°
2026-04-26 17:31 44.21093 9.71682 36162 ft 459 kts 42°
2026-04-26 17:32 44.25696 9.77857 36161 ft 459 kts 42°
2026-04-26 17:32 44.30288 9.84054 36158 ft 459 kts 42°
2026-04-26 17:33 44.34879 9.90268 36154 ft 459 kts 43°
2026-04-26 17:34 44.41721 9.99544 36161 ft 459 kts 42°
2026-04-26 17:34 44.46298 10.05765 36158 ft 458 kts 43°
2026-04-26 17:35 44.50867 10.11996 36152 ft 458 kts 43°
2026-04-26 17:35 44.55437 10.18237 36165 ft 458 kts 41°
2026-04-26 17:36 44.59987 10.24461 36106 ft 456 kts 41°
2026-04-26 17:36 44.64520 10.30692 36094 ft 456 kts 42°
2026-04-26 17:37 44.69055 10.36929 36138 ft 456 kts 42°
2026-04-26 17:37 44.73596 10.43171 36142 ft 457 kts 41°
2026-04-26 17:38 44.80405 10.52581 36128 ft 457 kts 42°
2026-04-26 17:38 44.84936 10.58884 36123 ft 458 kts 42°
2026-04-26 17:39 44.89446 10.65143 36128 ft 458 kts 42°
2026-04-26 17:39 44.93986 10.71459 36116 ft 458 kts 42°
2026-04-26 17:40 44.97019 10.75691 36110 ft 458 kts 42°
2026-04-26 17:40 45.03054 10.84122 36110 ft 458 kts 42°
2026-04-26 17:41 45.07576 10.90472 36119 ft 458 kts 42°
2026-04-26 17:41 45.12101 10.96831 36105 ft 459 kts 42°
2026-04-26 17:42 45.16630 11.03214 36111 ft 459 kts 42°
2026-04-26 17:42 45.21157 11.09611 36105 ft 459 kts 42°
2026-04-26 17:43 45.25680 11.16003 36110 ft 459 kts 42°
2026-04-26 17:43 45.30171 11.22372 36103 ft 459 kts 42°
2026-04-26 17:44 45.34715 11.28846 36100 ft 460 kts 42°
2026-04-26 17:44 45.39199 11.35264 36096 ft 460 kts 42°
2026-04-26 17:45 45.43716 11.41731 36103 ft 460 kts 42°
2026-04-26 17:45 45.48232 11.48194 36101 ft 460 kts 42°
2026-04-26 17:46 45.52754 11.54670 36101 ft 460 kts 42°
2026-04-26 17:46 45.57263 11.61149 36102 ft 460 kts 42°
2026-04-26 17:47 45.60278 11.65500 36119 ft 461 kts 43°
2026-04-26 17:47 45.66269 11.74187 36115 ft 461 kts 43°
2026-04-26 17:48 45.70771 11.80723 36124 ft 461 kts 43°
2026-04-26 17:48 45.75272 11.87274 36135 ft 461 kts 43°
2026-04-26 17:49 45.79764 11.93823 36131 ft 461 kts 43°
2026-04-26 17:49 45.84250 12.00373 36127 ft 460 kts 43°
2026-04-26 17:50 45.88733 12.06931 36113 ft 460 kts 43°
2026-04-26 17:50 45.92459 12.12389 36122 ft 460 kts 43°
2026-04-26 17:51 45.97654 12.20027 36118 ft 460 kts 43°
2026-04-26 17:51 46.02119 12.26628 36116 ft 459 kts 43°
2026-04-26 17:52 46.05823 12.32116 36118 ft 460 kts 43°
2026-04-26 17:52 46.10283 12.38730 36125 ft 460 kts 43°
2026-04-26 17:53 46.14744 12.45350 36136 ft 460 kts 43°
2026-04-26 17:54 46.21430 12.55310 36130 ft 460 kts 43°
2026-04-26 17:54 46.25876 12.61966 36129 ft 460 kts 43°
2026-04-26 17:55 46.30317 12.68635 36141 ft 460 kts 43°
2026-04-26 17:55 46.34755 12.75317 36140 ft 460 kts 43°
2026-04-26 17:56 46.39190 12.82011 36129 ft 461 kts 43°
2026-04-26 17:57 46.48036 12.95373 36151 ft 461 kts 44°
2026-04-26 17:57 46.52471 13.02096 36135 ft 461 kts 44°
2026-04-26 17:58 46.61328 13.15591 36137 ft 461 kts 44°
2026-04-26 17:59 46.67861 13.25895 36133 ft 463 kts 51°
2026-04-26 17:59 46.71098 13.34043 36136 ft 466 kts 60°
2026-04-26 18:00 46.74085 13.42437 36131 ft 467 kts 60°
2026-04-26 18:00 46.77083 13.50837 36129 ft 467 kts 60°
2026-04-26 18:01 46.80045 13.59212 36142 ft 467 kts 60°
2026-04-26 18:01 46.83020 13.67651 36142 ft 467 kts 60°
2026-04-26 18:02 46.85482 13.74664 36140 ft 467 kts 61°
2026-04-26 18:02 46.88934 13.84539 36144 ft 467 kts 61°
2026-04-26 18:03 46.91884 13.92994 36142 ft 467 kts 61°
2026-04-26 18:03 46.94823 14.01459 36167 ft 467 kts 61°
2026-04-26 18:04 46.97764 14.09936 36151 ft 467 kts 61°
2026-04-26 18:05 47.02168 14.22665 36159 ft 467 kts 61°
2026-04-26 18:05 47.05069 14.31114 36157 ft 467 kts 61°
2026-04-26 18:06 47.07981 14.39625 36167 ft 467 kts 61°
2026-04-26 18:06 47.10857 14.48179 36182 ft 468 kts 65°
2026-04-26 18:07 47.12730 14.57340 36168 ft 470 kts 74°
2026-04-26 18:07 47.13527 14.61990 35907 ft 469 kts 74°
2026-04-26 18:07 47.14324 14.66638 35655 ft 469 kts 74°
2026-04-26 18:07 47.14850 14.69714 35482 ft 469 kts 74°
2026-04-26 18:08 47.15908 14.75932 34482 ft 471 kts 74°
2026-04-26 18:08 47.16708 14.80621 33576 ft 474 kts 74°
2026-04-26 18:08 47.17504 14.85276 32658 ft 476 kts 74°
2026-04-26 18:08 47.18310 14.90002 31754 ft 478 kts 74°
2026-04-26 18:09 47.19117 14.94748 30867 ft 479 kts 74°
2026-04-26 18:09 47.19924 14.99526 29747 ft 484 kts 74°
2026-04-26 18:09 47.20733 15.04335 28771 ft 485 kts 75°
2026-04-26 18:09 47.21532 15.09119 28092 ft 478 kts 75°
2026-04-26 18:10 47.22327 15.13831 27440 ft 472 kts 72°
2026-04-26 18:10 47.23552 15.18252 26784 ft 464 kts 58°
2026-04-26 18:10 47.25330 15.22164 26157 ft 458 kts 52°
2026-04-26 18:10 47.27160 15.25973 25556 ft 454 kts 52°
2026-04-26 18:11 47.28980 15.29745 24951 ft 450 kts 52°
2026-04-26 18:11 47.30788 15.33492 24362 ft 446 kts 53°
2026-04-26 18:11 47.32549 15.37154 23787 ft 443 kts 53°
2026-04-26 18:11 47.34320 15.40841 23306 ft 438 kts 53°
2026-04-26 18:12 47.36080 15.44506 23168 ft 437 kts 53°
2026-04-26 18:12 47.37835 15.48172 23216 ft 438 kts 53°
2026-04-26 18:12 47.39590 15.51852 22945 ft 439 kts 52°
2026-04-26 18:12 47.41345 15.55553 21778 ft 438 kts 52°
2026-04-26 18:13 47.43056 15.59175 21066 ft 422 kts 53°
2026-04-26 18:13 47.44718 15.62689 20144 ft 413 kts 53°
2026-04-26 18:13 47.46325 15.66078 19220 ft 404 kts 53°
2026-04-26 18:13 47.47408 15.68360 18592 ft 399 kts 52°
2026-04-26 18:14 47.49496 15.72767 17234 ft 391 kts 52°
2026-04-26 18:14 47.51041 15.76034 16274 ft 385 kts 52°
2026-04-26 18:14 47.52566 15.79259 15364 ft 380 kts 51°
2026-04-26 18:14 47.54069 15.82440 14484 ft 374 kts 51°
2026-04-26 18:15 47.55554 15.85589 13990 ft 373 kts 51°
2026-04-26 18:15 47.57043 15.88750 13733 ft 375 kts 51°
2026-04-26 18:15 47.58531 15.91916 13471 ft 373 kts 51°
2026-04-26 18:15 47.59969 15.94989 13025 ft 366 kts 51°
2026-04-26 18:16 47.61412 15.98072 12505 ft 361 kts 51°
2026-04-26 18:16 47.64233 16.04095 11479 ft 352 kts 51°
2026-04-26 18:16 47.65643 16.07107 11249 ft 357 kts 51°
2026-04-26 18:17 47.67018 16.10061 11215 ft 337 kts 51°
2026-04-26 18:17 47.68313 16.12857 11097 ft 320 kts 51°
2026-04-26 18:17 47.69538 16.15510 10796 ft 306 kts 51°
2026-04-26 18:17 47.70735 16.18094 10447 ft 301 kts 50°
2026-04-26 18:18 47.71915 16.20634 10108 ft 297 kts 50°
2026-04-26 18:18 47.73073 16.23120 9680 ft 296 kts 50°
2026-04-26 18:18 47.74238 16.25623 9255 ft 294 kts 50°
2026-04-26 18:18 47.75397 16.28112 8855 ft 292 kts 50°
2026-04-26 18:19 47.76546 16.30582 8459 ft 289 kts 50°
2026-04-26 18:19 47.77686 16.33035 8044 ft 287 kts 50°
2026-04-26 18:19 47.78818 16.35475 7618 ft 286 kts 50°
2026-04-26 18:19 47.79941 16.37904 7220 ft 284 kts 50°
2026-04-26 18:20 47.81055 16.40319 6812 ft 283 kts 50°
2026-04-26 18:20 47.82164 16.42724 6387 ft 281 kts 50°
2026-04-26 18:20 47.83244 16.45071 6028 ft 276 kts 51°
2026-04-26 18:20 47.83971 16.46658 5778 ft 273 kts 51°
2026-04-26 18:21 47.85369 16.49701 5404 ft 262 kts 51°
2026-04-26 18:21 47.86374 16.51893 5284 ft 251 kts 52°
2026-04-26 18:21 47.87332 16.53984 5155 ft 238 kts 52°
2026-04-26 18:21 47.88242 16.55967 4900 ft 229 kts 51°
2026-04-26 18:22 47.89138 16.57916 4483 ft 228 kts 51°
2026-04-26 18:22 47.90025 16.59850 4104 ft 224 kts 52°
2026-04-26 18:22 47.90896 16.61752 3746 ft 218 kts 52°
2026-04-26 18:22 47.91827 16.63405 3609 ft 201 kts 38°
2026-04-26 18:23 47.92967 16.64457 3380 ft 192 kts 21°
2026-04-26 18:23 47.94217 16.64898 3248 ft 178 kts
2026-04-26 18:23 47.95420 16.64781 3089 ft 173 kts 349°
2026-04-26 18:23 47.96579 16.64307 3028 ft 173 kts 346°
2026-04-26 18:24 47.97738 16.63821 2871 ft 173 kts 346°
2026-04-26 18:24 47.98898 16.63333 2660 ft 172 kts 347°
2026-04-26 18:24 48.00030 16.62856 2437 ft 164 kts 347°
2026-04-26 18:24 48.01097 16.62407 2238 ft 153 kts 347°
2026-04-26 18:25 48.02078 16.61993 2022 ft 141 kts 347°
2026-04-26 18:25 48.02992 16.61609 1832 ft 136 kts 347°
2026-04-26 18:25 48.03893 16.61230 1650 ft 134 kts 347°
2026-04-26 18:25 48.04789 16.60853 1470 ft 135 kts 347°
2026-04-26 18:26 48.05687 16.60474 1280 ft 134 kts 347°
2026-04-26 18:26 48.06584 16.60096 1102 ft 134 kts 346°
2026-04-26 18:26 48.07479 16.59722 933 ft 132 kts 346°
2026-04-26 18:26 48.08370 16.59344 740 ft 133 kts 346°
2026-04-26 18:27 48.09254 16.58973 618 ft 125 kts 347°
2026-04-26 18:27 48.10150 16.58618 844 ft 148 kts 346°
2026-04-26 18:27 48.11173 16.58208 1718 ft 154 kts 347°
2026-04-26 18:27 48.12226 16.57746 2286 ft 166 kts 346°
2026-04-26 18:28 48.13394 16.57239 2550 ft 188 kts 346°
2026-04-26 18:28 48.14722 16.56680 2851 ft 207 kts 346°
2026-04-26 18:28 48.16129 16.56116 3587 ft 210 kts 348°
2026-04-26 18:28 48.17580 16.56208 4363 ft 214 kts 19°
2026-04-26 18:29 48.18811 16.57529 4886 ft 226 kts 49°
2026-04-26 18:29 48.19424 16.59703 4987 ft 233 kts 81°
2026-04-26 18:29 48.19163 16.62117 5008 ft 241 kts 114°
2026-04-26 18:29 48.18147 16.64133 5012 ft 245 kts 133°
2026-04-26 18:30 48.16930 16.65924 5013 ft 246 kts 135°
2026-04-26 18:30 48.15697 16.67651 5012 ft 246 kts 139°
2026-04-26 18:30 48.14199 16.68855 5014 ft 246 kts 162°
2026-04-26 18:30 48.12560 16.69608 5014 ft 247 kts 165°
2026-04-26 18:31 48.10922 16.70289 5007 ft 239 kts 165°
2026-04-26 18:31 48.09351 16.70931 5012 ft 232 kts 165°
2026-04-26 18:31 48.07799 16.71559 5004 ft 231 kts 165°
2026-04-26 18:31 48.06246 16.72179 5009 ft 231 kts 166°
2026-04-26 18:32 48.04689 16.72797 4964 ft 231 kts 165°
2026-04-26 18:32 48.03162 16.73399 4687 ft 229 kts 166°
2026-04-26 18:32 48.01657 16.73988 4547 ft 219 kts 165°
2026-04-26 18:32 48.00192 16.74551 4268 ft 216 kts 165°
2026-04-26 18:33 47.98740 16.75078 3962 ft 213 kts 169°
2026-04-26 18:33 47.97296 16.74846 3582 ft 210 kts 206°
2026-04-26 18:33 47.96245 16.73436 3153 ft 204 kts 244°
2026-04-26 18:33 47.95701 16.71509 3001 ft 201 kts 254°
2026-04-26 18:34 47.95251 16.69528 3008 ft 203 kts 256°
2026-04-26 18:34 47.95138 16.67484 3014 ft 196 kts 284°
2026-04-26 18:34 47.95655 16.65656 3008 ft 190 kts 309°
2026-04-26 18:34 47.96633 16.64383 3001 ft 187 kts 334°
2026-04-26 18:35 47.97835 16.63769 2844 ft 185 kts 346°
2026-04-26 18:35 47.99069 16.63257 2619 ft 183 kts 346°
2026-04-26 18:35 48.00296 16.62745 2381 ft 183 kts 346°
2026-04-26 18:35 48.01517 16.62232 2136 ft 182 kts 347°
2026-04-26 18:36 48.02738 16.61718 1890 ft 180 kts 347°
2026-04-26 18:36 48.03878 16.61235 1654 ft 161 kts 346°
2026-04-26 18:36 48.04899 16.60804 1440 ft 146 kts 347°
2026-04-26 18:36 48.05839 16.60412 1239 ft 136 kts 347°
2026-04-26 18:37 48.06729 16.60036 1048 ft 134 kts 345°
2026-04-26 18:37 48.07618 16.59662 851 ft 133 kts 346°
2026-04-26 18:37 48.08504 16.59286 714 ft 132 kts 345°
2026-04-26 18:37 48.09374 16.58921 623 ft 122 kts 345°
2026-04-26 18:38 48.10028 16.58645 622 ft 72 kts 344°
2026-04-26 18:38 48.10342 16.58502 618 ft 25 kts 330°
2026-04-26 18:38 48.10440 16.58316 613 ft 20 kts 297°
2026-04-26 18:38 48.10476 16.58217 614 ft 7 kts 308°
2026-04-26 18:39 48.10507 16.58205 610 ft 0 kts 356°
2026-04-26 18:39 48.10524 16.58192 625 ft 6 kts 330°
2026-04-26 18:39 48.10571 16.58143 615 ft 9 kts 325°
2026-04-26 18:40 48.10638 16.58108 621 ft 9 kts 345°
2026-04-26 18:40 48.10702 16.58081 618 ft 9 kts 343°
2026-04-26 18:40 48.10767 16.58054 613 ft 10 kts 345°
2026-04-26 18:40 48.10835 16.58023 616 ft 10 kts 342°
2026-04-26 18:41 48.10901 16.57995 622 ft 10 kts 344°
2026-04-26 18:41 48.10971 16.57965 614 ft 10 kts 345°
2026-04-26 18:41 48.11040 16.57937 621 ft 10 kts 344°
2026-04-26 18:41 48.11107 16.57908 620 ft 10 kts 344°
2026-04-26 18:42 48.11176 16.57879 623 ft 10 kts 344°
2026-04-26 18:42 48.11244 16.57850 620 ft 10 kts 344°
2026-04-26 18:42 48.11313 16.57821 614 ft 10 kts 344°
2026-04-26 18:42 48.11383 16.57791 612 ft 10 kts 344°
2026-04-26 18:43 48.11452 16.57762 617 ft 11 kts 344°
2026-04-26 18:43 48.11562 16.57715 619 ft 21 kts 344°
2026-04-26 18:43 48.11666 16.57672 612 ft 11 kts 344°
2026-04-26 18:43 48.11721 16.57648 614 ft 6 kts 344°
2026-04-26 18:44 48.11743 16.57639 615 ft 0 kts 344°
2026-04-26 18:48 48.11758 16.57632 621 ft 4 kts 345°
2026-04-26 18:48 48.11800 16.57614 616 ft 8 kts 339°
2026-04-26 18:48 48.11830 16.57540 622 ft 10 kts 266°
2026-04-26 18:48 48.11813 16.57427 620 ft 13 kts 256°
2026-04-26 18:49 48.11832 16.57283 620 ft 16 kts 297°
2026-04-26 18:49 48.11858 16.57140 609 ft 13 kts 287°
2026-04-26 18:49 48.11891 16.57032 624 ft 10 kts 296°
2026-04-26 18:49 48.11919 16.56948 611 ft 8 kts 296°
2026-04-26 18:50 48.11939 16.56886 621 ft 6 kts 296°
2026-04-26 18:50 48.11953 16.56820 612 ft 6 kts 260°
2026-04-26 18:50 48.11928 16.56792 609 ft 5 kts 211°
2026-04-26 18:50 48.11900 16.56769 614 ft 2 kts 207°